Regional Weather Roundup
Issued by NWS Goodland, KS

Home | Current Version | Previous Version | Graphics & Text | Print | Product List | Glossary On
Versions: 1 2 3 4 5 6 7 8 9 10 11 12 13 14 15 16 17 18 19 20 21 22 23 24 25 26 27 28 29 30 31 32 33 34 35 36 37 38 39 40 41 42 43 44 45 46 47 48 49 50
000
ASUS43 KGLD 291059
RWRGLD

GOODLAND FORECAST AREA HOURLY WEATHER ROUNDUP
NATIONAL WEATHER SERVICE GOODLAND KS
500 AM MDT SUN MAY 29 2016

...OFFICIAL OBSERVATIONS...

CITY           SKY/WX    TMP DP  RH WIND       PRES   REMARKS
GOODLAND KS    CLEAR     50  46  86 CALM      30.11R
HILL CITY KS   PTCLDY    54  51  90 CALM      30.08R
IMPERIAL NEB   CLEAR     51  48  89 CALM      30.10R
MCCOOK NEB     CLEAR     53  48  83 CALM      30.07R
AKRON CO       CLEAR     45  41  86 NW6       30.13R
BURLINGTON CO  CLEAR     50  44  80 S9        30.13S
LIMON CO       CLOUDY    40  39  97 N3        30.18R
$$

...UNOFFICIAL OBSERVATIONS...

CITY           SKY/WX    TMP DP  RH WIND       PRES   REMARKS
GOVE KS          N/A     63  32  31 MISG        N/A
LENORA KS        N/A     56  32  40 MISG        N/A
SHARON SPRINGS   N/A     54  50  86 SE8         N/A
KIT CARSON CO    N/A     48  44  85 CALM        N/A
YUMA CO          N/A     49  44  84 SW5         N/A
$$




USA.gov is the U.S. government's official web portal to all federal, state and local government web resources and services.